sat.trackr.live / text

‹ back to catalog

KUIPER-00014

NORAD 63730 · 2025-088G

PAYLOAD ACTIVE UNKNOWN

§ Identity

Operator
Country
US
Launch date
2025-04-28
Launch site
AFETR
Launch vehicle
Mass (kg)
RCS (m²)

External: N2YO · Heavens-Above · Gunter

§ Orbital elements

Epoch: 2026-09-21T09:10:15.217248Z

Period
97.30 min
Inclination
51.9073°
Eccentricity
0.0000992
Mean motion
14.79919098 rev/d
Perigee alt
628.9 km
Apogee alt
630.3 km
Semi-major
7,007.7 km
B*
-2.4558e-4
RAAN
322.7162°
Arg perigee
96.7588°
Mean anomaly
263.3488°
Rev number
7,636

§ Raw data

KUIPER-000141 63730U 25088G   26264.38212057 -.00002092  00000+0 -24558-3 0  99912 63730  51.9073 322.7162 0000992  96.7588 263.3488 14.79919098 76365

JSON: /api/v1/satellites/63730 · /tle

For live sub-satellite position, see the globe view (requires WebGL).

§ Visibility from observer

Set your observer location to see the next 7 days of passes ≥ 10°. The values pass through the URL so the page stays shareable.

No JS? Fill the form by hand. The geolocation button needs JavaScript.